User: anonymous   Login
Location: Capel Gartheli
(52.1833°N, 4.0667°W)
Time: 21:13:57
(UTC+00:00)
Language:

Cosmos 1862 - Orbit

View from above orbital plane
View from above orbital plane
View from above satellite
View from above satellite

Ground track
Ground track

The orbit data is extracted from the following two-line orbital elements,

1 18152U 87055A   20158.45539516 +.00000975 +00000-0 +64212-4 0  9996
2 18152 082.4947 318.4041 0014446 105.8992 254.3829 15.06341509771863
Epoch (UTC): 06 June 2020 10:55:46
Eccentricity: 0.0014446
inclination: 82.4947°
perigee height: 537 km
apogee height: 557 km
right ascension of ascending node: 318.4041°
argument of perigee: 105.8992°
revolutions per day: 15.06341509
mean anomaly at epoch: 254.3829°
orbit number at epoch: 77186

The dashed part of the orbit path shows where the satellite is in the earth's shadow,  

DLR